ANIK G1 (39127 NORAD) Tracking and Keplerian Element Data

This shows tracking and keplerian element data for the satellite.

Feedback or suggestion? Click here.




ElementValue
Catalog39127
NameANIK G1
Epoch Orbit4645
Epoch Day354.24761723
Epoch Year2025
RAAN286.3374
Inclination0.0258
Eccentricity0.0003304
Argument of Perigee339.6755
Mean Anonmoly164.9145
Mean Motion1.00271591
Decay Rate-5E-07
L11 39127U 13014A 25354.24761723 -.00000050 00000+0 00000+0 0 9996
L22 39127 0.0258 286.3374 0003304 339.6755 164.9145 1.00271591 46455



Live tracking and technical data element details for ANIK G1 (NORAD 39127). ANIK G1 can be tracked NOW for your location showing map with azimuth and elevation plus other details from your city location.







IsCatalogInMostPopularTable: catalog: 39127, numindb: 396
Update: records affected: 1



GetName: 39127 ANIK G1

Hit Count: updated at: Wed, 15 Apr 2026 01:49:39 GMT